Back to catalog

STARLINK-30810

AliveCommunicationsVLEO
NORAD 58178·PAYLOAD·🇺🇸 United States

Launched Oct 30, 2023 from Cape Canaveral Space Force Station

Loading…

Next Passes (next 24 hours)

TLE

FreshSource: CelesTrak SupGP

Epoch: Sep 14, 2026, 22:11 UTC

1 58178C 23167D   26257.92479167 -.00041088  00000+0 -14883-2 0  2570
2 58178  42.9994 154.3073 0001402 268.6107 350.7608 15.27597725    18

Track STARLINK-30810 in real time with AllMySat

Download on the App Store